Home   Weather   Aarau   Past weeks

Flag for Switzerland Past Weather in Aarau, Aargau, Switzerland — Yesterday and Last 2 Weeks

Now
54 °F

Cool.


Feels Like: 52 °F
Forecast: 38 / 50 °F
Wind: 8 mph from Southwest

Location: Wynau

Current Time: Feb 27, 2017 at 2:35:30 pm

Latest Report: Feb 27, 2017 at 1:00 pm


Visibility: N/A

Pressure: 29.75 "Hg

Humidity: 46%

Dew Point: 34 °F

Location of AarauLocation

Past Weather in Aarau — Graph

°F

Aarau Temperature Yesterday

Maximum temperature yesterday: 52 °F (at 4:00 pm)
Minimum temperature yesterday: 28 °F (at 7:00 am)
Average temperature yesterday: 38 °F

High & Low Weather Summary for the Past Weeks

 TemperatureHumidityPressure
High67 °F (Feb 23, 3:00 pm)100% (Feb 14, 11:00 pm)30.68 "Hg (Feb 14, 11:00 pm)
Low26 °F (Feb 15, 7:00 am)19% (Feb 23, 3:00 pm)29.61 "Hg (Feb 23, 5:00 pm)
Average40 °F81%30.25 "Hg
* Reported Feb 12 1:00 pm — Feb 27 1:00 pm, Aarau, Weather by CustomWeather, © 2017

Note: Actual official high and low records may vary slightly from our data, if they occured in-between our weather recording intervals... More about our weather records

Advertising

Aarau Weather History for the Previous 24 Hours

Scroll right to see more
 ConditionsComfort  
Time TempWeatherWind HumidityBarometerVisibility
1:00 pm
Mon, Feb 27
54 °FCool.8 mph46%29.75 "HgN/A
12:00 pm50 °FCool.5 mph53%29.80 "HgN/A
11:00 am39 °FChilly.2 mph81%29.87 "HgN/A
10:00 am34 °FChilly.1 mph91%29.92 "HgN/A
9:00 am31 °FChilly.No wind94%29.95 "HgN/A
8:00 am29 °FChilly.1 mph95%29.98 "HgN/A
7:00 am27 °FChilly.No wind97%29.99 "HgN/A
6:00 am26 °FChilly.1 mph100%30.01 "HgN/A
5:00 am27 °FChilly.No wind98%30.02 "HgN/A
4:00 am29 °FChilly.No wind97%30.02 "HgN/A
3:00 am28 °FChilly.1 mph98%30.04 "HgN/A
2:00 am29 °FChilly.1 mph99%30.06 "HgN/A
1:00 am30 °FChilly.1 mph97%30.07 "HgN/A
12:00 am31 °FChilly.1 mph96%30.07 "HgN/A
11:00 pm
Sun, Feb 26
32 °FChilly.2 mph95%30.08 "HgN/A
10:00 pm33 °FChilly.No wind96%30.09 "HgN/A
9:00 pm35 °FChilly.1 mph84%30.08 "HgN/A
8:00 pm38 °FChilly.1 mph85%30.07 "HgN/A
7:00 pm41 °FQuite cool.No wind77%30.06 "HgN/A
6:00 pm45 °FCool.2 mph69%30.04 "HgN/A
5:00 pm50 °FCool.1 mph62%30.02 "HgN/A
4:00 pm52 °FCool.3 mph45%30.02 "HgN/A
3:00 pm51 °FCool.5 mph46%30.03 "HgN/A
2:00 pm49 °FCool.3 mph50%30.06 "HgN/A
Weather by CustomWeather, © 2017

See weather overviewHow to use our weather pages